Regional Weather Roundup
Issued by NWS Grand Forks, ND

Home | Current Version | Previous Version | Graphics & Text | Print | Product List | Glossary On
Versions: 1 2 3 4 5 6 7 8 9 10 11 12 13 14 15 16 17 18 19 20 21 22 23 24 25 26 27 28 29 30 31 32 33 34 35 36 37 38 39 40 41 42 43 44 45 46 47 48 49 50
673
ASUS43 KFGF 190910
RWRFGF
PRAIRIE TO PINES  WEATHER ROUNDUP
NATIONAL WEATHER SERVICE EASTERN NORTH DAKOTA/GRAND FORKS ND
400 AM CDT THU APR 19 2018

 **SATELLITE DATA USED TO AUGMENT SKY COVER AT AUTOMATED STATIONS**
 *****  WEATHER ACROSS EASTERN NORTH DAKOTA  *****

CITY           SKY/WX    TMP DP  RH WIND       PRES   REMARKS
GRAND FORKS    FAIR      30  30 100 CALM      30.34R
GRAND FRKS AFB FAIR      30  29  96 CALM      30.34R
DEVILS LAKE    FAIR      31  26  82 W5        30.34R
FARGO          FAIR      29  27  92 NW5       30.33R WCI  24
WAHPETON ARPT  FAIR      32  30  93 CALM      30.34R
$$

 ***** WEATHER ACROSS CENTRAL AND WESTERN NORTH DAKOTA  *****

CITY           SKY/WX    TMP DP  RH WIND       PRES   REMARKS
BISMARCK       FAIR      26  26 100 CALM      30.36S
MINOT          CLOUDY    36  33  89 NW7       30.34S
JAMESTOWN      FAIR      30  28  92 CALM      30.32S
MINOT AFB      CLOUDY    35  34  97 NW8       30.33S
GARRISON         N/A     29  27  92 NW8       30.34S WCI  21
WILLISTON      CLOUDY    33  32  96 N7        30.36S FOG
DICKINSON      FOG       23  20  88 CALM      30.31R VSB 1/4
HETTINGER      FAIR      24  21  88 CALM      30.33R
$$

 *****  OTHER AIRPORT OBSERVATIONS IN OUR AREA  *****

CITY           SKY/WX    TMP DP  RH WIND       PRES   REMARKS
WALHALLA       FAIR      32  28  86 CALM      30.33R
GRAFTON AIRPOR FAIR      30  30 100 S3        30.35S
VALLEY CITY AR FAIR      30  32 100 NW9       30.35R WCI  22
CANDO          FAIR      30  30 100 CALM      30.35R
CAVALIER APRT    N/A     32  28  86 CALM      30.33R
GWINNER          N/A     30  30 100 W7        30.34R WCI  23
SHEYENNE NWR     N/A     27  27 100 CALM      29.95
ROLLA          FAIR      32  32 100 NW9       30.33R WCI  24
 ***** THE ABOVE OBSERVATIONS ARE NON NWS ARE NOT QUALITY
       CONTROLLED AND MAY MIS-REPORT RAIN FOR SNOW...
$$

  *****  WEATHER ACROSS NORTHERN MINNESOTA  *****

CITY           SKY/WX    TMP DP  RH WIND       PRES   REMARKS
FLAG ISLAND    FAIR      28  12  50 CALM      30.32S
WARROAD        FAIR      27  18  69 CALM      30.33S
ROSEAU         FAIR      28  25  86 CALM      30.34R
HALLOCK        FAIR      34  27  75 SE7       30.34R
THF RVR FALLS  FAIR      29  25  85 E5        30.34R WCI  24
BAUDETTE       FAIR      26  22  84 CALM      30.32R
WASKISH        FAIR      21  19  93 CALM      30.33R
CROOKSTON      FAIR      34  25  69 NE3       30.35R
GREENBUSH NDAW   N/A     28  27  93 S2          N/A
$$
  *****  WEATHER ACROSS CENTRAL AND WEST MINNESOTA  *****

CITY           SKY/WX    TMP DP  RH WIND       PRES   REMARKS
FOSSTON        FAIR      25   9  50 CALM      30.34R
BEMIDJI        FAIR      24  17  75 CALM      30.32R
PARK RAPIDS    FAIR      26  19  74 CALM      30.32R
ELBOW LAKE     FAIR      30  28  92 CALM      30.34R
WADENA         FAIR      25  19  80 CALM      30.33R
DETROIT LAKES  FAIR      30  27  86 CALM      30.34R
MOORHEAD       FAIR      32  28  86 CALM      30.34S
FERGUS FALLS   FAIR      34  25  69 CALM      30.33R
MORRIS MN      FAIR      30  28  93 CALM      30.34R
STAPLES        FAIR      25  18  74 CALM      30.34R
$$
  *****  WEATHER ELSEWHERE ACROSS MINNESOTA  *****

CITY           SKY/WX    TMP DP  RH WIND       PRES   REMARKS
DULUTH         FAIR      23  11  60 NW6       30.28R WCI  16
INTRNTL FALLS  FAIR      22  18  85 CALM      30.32R
ELY            FAIR      18  14  86 CALM      30.29R
CLOQUET        FAIR      27   9  46 NW7       30.29R WCI  19
WHEATON        FAIR      32  28  86 W5        30.36R
BRAINERD       FAIR      26  16  65 CALM      30.33R
HIBBING        FAIR      19  16  88 CALM      30.29R
ALEXANDRIA     FAIR      29  21  72 CALM      30.34R
SAINT CLOUD    FAIR      29  16  58 NW5       30.33R WCI  24
MINNEAPOLIS    FAIR      26  17  68 NW5       30.31R WCI  20
$$

  *****  WEATHER ACROSS SOUTH DAKOTA  *****

CITY           SKY/WX    TMP DP  RH WIND       PRES   REMARKS
SIOUX FALLS    FAIR      29  24  82 CALM      30.33R
BROOKINGS      FAIR      28  26  92 W5        30.34R WCI  23
WATERTOWN      FAIR      31  28  89 CALM      30.33R
HURON          FAIR      26  24  92 NW5       30.35R WCI  20
SISSETON         N/A     32  29  88 SW3       30.33R
ABERDEEN       FAIR      28  25  88 CALM      30.35S
MITCHELL       FAIR      29  27  92 W3        30.36R
PIERRE         FAIR      32  28  85 W3        30.35R
MOBRIDGE       FAIR      26  22  84 CALM      30.32R
RAPID CITY     FAIR      32  30  92 CALM      30.29S
$$

  *****  SOME WEATHER IN NEARBY STATES *****

CITY           SKY/WX    TMP DP  RH WIND       PRES   REMARKS
GLASGOW MT     FAIR      34  32  92 E16       30.29  FOG     WCI  24
GREAT FALLS MT FAIR      32  25  75 CALM      30.12F
CHEYENNE WY    FAIR      30  18  60 S5        30.26F
SCOTTSBLUFF NE FAIR      28  24  85 E7        30.30R WCI  21
OMAHA NE       FAIR      29  27  92 N5        30.32R WCI  24
DES MOINES IA  CLOUDY    32  29  88 NW6       30.27R
DAVENPORT IA   CLOUDY    32  30  92 N13       30.20R WCI  22
CHICAGO IL     MOCLDY    34  33  96 N10       30.07R
EAU CLAIRE WI  FAIR      23  16  74 NW3       30.26R
LA CROSSE WI   FAIR      24  23  96 N6        30.25R FOG     WCI  17
$$

  *****  SOME NATIONAL WEATHER *****

CITY           SKY/WX    TMP DP  RH WIND       PRES   REMARKS
LA GUARDIA NY  CLOUDY    44  35  70 NE6       29.71R
RALEIGH NC     FAIR      66  49  54 SW9       29.70S
ATLANTA GA     FAIR      62  56  80 W10       29.92R
NEW ORLEANS LA MOCLDY    66  66 100 W6        30.06S
OKLAHOMA CITY  FAIR      45  29  53 N8        30.29R
ALBUQUERQUE NM FAIR      51  12  21 E30G37    30.17R
SALT LAKE CITY FAIR      46  30  53 SE8       29.93S
LOS ANGELES CA FAIR      53  45  74 W15       30.01F
BOISE ID       FAIR      46  29  51 NW5       29.93S
SEATTLE WA     FAIR      46  41  82 N6        30.20S
$$

*** WEATHER ACROSS MANITOBA...SASKATCHEWAN AND ONTARIO ***
                ***ONTARIO***

CITY           SKY/WX    TMP DP  RH WIND       PRES   REMARKS
GERALDTON      CLEAR     19  16  86 NW5       30.25R WCI  13
THUNDER BAY    CLEAR     23  18  80 W3        30.28R
SIOUX LOOKOUT  CLEAR     19  16  86 NE2       30.30R
TORONTO        CLOUDY    32  23  69 N15       29.80F WCI  22
BIG TROUT LK   CLEAR     21  12  68 S6        30.28S WCI  14
PICKLE LAKE    NOT AVBL
DRYDEN         CLEAR     25  16  68 NE2       30.30R
KENORA         CLEAR     36   7  30 VRB2      30.32R
$$
                *** MANITOBA***

CITY           SKY/WX    TMP DP  RH WIND       PRES   REMARKS
BRANDON        CLOUDY    32  32 100 W8        30.33R WCI  25
DAUPHIN        CLEAR     34  30  86 W8        30.33R
ISLAND LAKE    CLEAR     28  10  47 SW2       30.26R
PILOT MOUND      N/A     30  25  80 W1          N/A
THE PAS        CLEAR     32  27  80 NW5       30.29R
THOMPSON       PTCLDY    30  27  86 W5        30.24R
WINNIPEG       MOCLDY    32  21  64 W8        30.33R WCI  25
LYNN LAKE      CLEAR     27  23  86 SW7       30.19R WCI  19
CHURCHILL      CLOUDY    37  30  75 W13       30.10R
GILLAM         MOCLDY    36  19  51 W7        30.19R
$$
                ***SASKATCHEWAN***

CITY           SKY/WX    TMP DP  RH WIND       PRES   REMARKS
ESTEVAN        FOG       30  30 100 VRB2      30.35F VSB 1/8
KINDERSLEY     PTCLDY    36  30  80 S8        30.22R
LLOYDMINSTER   CLEAR     32  27  80 S8        30.20S WCI  25
PRINCE ALBERT  PTCLDY    25  21  86 E2        30.31R
REGINA         CLEAR     25  23  93 E5        30.34S FOG     WCI  19
YORKTON        CLEAR     28  25  86 CALM      30.33R
N. BATTLEFORD  CLEAR     36  27  69 S5        30.26S
LA RONGE       PTCLDY    32  21  64 S6        30.23S
SASKATOON      PTCLDY    32  28  86 SW8       30.30R WCI  25
SWIFT CURRENT  CLEAR     32  27  80 SE12      30.26S WCI  23
$$
NOTE: THESE ARE AUTOMATED STATIONS WITH LIMITED QUALITY CONTROL
      "FAIR" INDICATES FEW OR NO CLOUDS BELOW 12,000 FEET WITH NO
      SIGNIFICANT WEATHER AND/OR OBSTRUCTIONS TO VISIBILITY.
      SKY/WX - SKY CONDITION AND SIGNIFICANT WEATHER.
      TMP - AIR TEMPERATURE.    DP   - DEWPOINT TEMPERATURE.
      RH  - RELATIVE HUMIDITY.  PRES - PRESSURE.
      HX  - HEAT INDEX.         WCI  - WIND CHILL INDEX.
$




USA.gov is the U.S. government's official web portal to all federal, state and local government web resources and services.